KY4GW Weather Reports


time (UTC)temp
C
wind
direction
speed
KPH
gust
KPH
rain 1hr
cm
rain 24hr
cm
rain mn
cm
humidity
%
barometer
mb
20260503201143 17 155 3.2 3.2 0.00 0.00 0.00 36 1019.6
20260503200639 17 222 4.8 4.8 0.00 0.00 0.00 37 1019.6
20260503200136 17 258 4.8 4.8 0.00 0.00 0.00 38 1019.6
20260503195633 17 156 3.2 3.2 0.00 0.00 0.00 41 1020.4
20260503195130 17 240 4.8 4.8 0.00 0.00 0.00 40 1020.4
20260503194627 17 288 4.8 4.8 0.00 0.00 0.00 42 1020.4
20260503194122 17 174 3.2 3.2 0.00 0.00 0.00 39 1020.4
20260503193620 16 270 1.6 1.6 0.00 0.00 0.00 38 1020.4
20260503193115 16 218 3.2 3.2 0.00 0.00 0.00 39 1020.4
20260503192610 16 174 1.6 1.6 0.00 0.00 0.00 39 1020.7
20260503192106 16 264 4.8 4.8 0.00 0.00 0.00 38 1020.7
20260503191604 17 228 3.2 3.2 0.00 0.00 0.00 39 1020.7
20260503191100 16 192 3.2 3.2 0.00 0.00 0.00 41 1020.7
20260503190557 16 306 3.2 3.2 0.00 0.00 0.00 36 1020.7
20260503190054 17 205 4.8 4.8 0.00 0.00 0.00 37 1021.1
20260503185551 16 228 1.6 1.6 0.00 0.00 0.00 37 1021.1
20260503185050 16 234 3.2 3.2 0.00 0.00 0.00 36 1021.1
20260503184546 16 318 3.2 3.2 0.00 0.00 0.00 38 1021.1
20260503184043 16 228 3.2 3.2 0.00 0.00 0.00 42 1021.1
20260503183540 16 72 0.0 0.0 0.00 0.00 0.00 36 1021.1
20260503183037 16 252 3.2 3.2 0.00 0.00 0.00 41 1021.4
20260503182536 16 216 4.8 4.8 0.00 0.00 0.00 39 1021.4
20260503182033 16 204 0.0 0.0 0.00 0.00 0.00 38 1021.4
20260503181530 15 216 0.0 0.0 0.00 0.00 0.00 42 1021.4
20260503181026 16 210 3.2 3.2 0.00 0.00 0.00 40 1021.4
20260503180524 16 210 3.2 3.2 0.00 0.00 0.00 40 1021.4
20260503180021 16 290 0.0 0.0 0.00 0.00 0.00 42 1021.8
20260503175518 16 216 3.2 3.2 0.00 0.00 0.00 40 1021.8
20260503175015 16 216 3.2 3.2 0.00 0.00 0.00 38 1021.8
20260503174513 16 192 4.8 4.8 0.00 0.00 0.00 36 1022.1
20260503174008 16 206 3.2 3.2 0.00 0.00 0.00 42 1022.1
20260503173503 15 204 3.2 3.2 0.00 0.00 0.00 38 1022.1
20260503173000 16 150 4.8 4.8 0.00 0.00 0.00 36 1022.8
20260503172458 15 180 0.0 0.0 0.00 0.00 0.00 42 1022.8
20260503171954 15 222 0.0 0.0 0.00 0.00 0.00 36 1022.8
20260503171451 15 66 3.2 3.2 0.00 0.00 0.00 38 1022.8
20260503170949 15 240 3.2 3.2 0.00 0.00 0.00 41 1022.8
20260503170445 15 204 3.2 3.2 0.00 0.00 0.00 36 1022.8
20260503150837 16 167 0.0 0.0 0.00 0.00 0.00 40 1023.5
20260503150333 15 198 3.2 3.2 0.00 0.00 0.00 44 1023.5
20260503140257 13 204 0.0 0.0 0.00 0.00 0.00 45 1023.5
20260503131227 11 192 1.6 1.6 0.00 0.00 0.00 57 1023.5
20260503130725 11 294 0.0 0.0 0.00 0.00 0.00 55 1023.5
20260503130222 11 205 0.0 0.0 0.00 0.00 0.00 56 1023.5
20260503120147 6 50 0.0 0.0 0.00 0.00 0.00 72 1023.1
20260503110615 -1 203 0.0 0.0 0.00 0.00 0.00 95 1022.8
20260503110113 -1 203 0.0 0.0 0.00 0.00 0.00 95 1022.8
20260503090502 0 214 0.0 0.0 0.00 0.00 0.00 95 1022.4
20260503081428 0 192 0.0 0.0 0.00 0.00 0.00 94 1022.1
20260503080926 0 192 0.0 0.0 0.00 0.00 0.00 94 1022.1
20260503080422 0 192 0.0 0.0 0.00 0.00 0.00 94 1022.1
20260503072858 0 208 0.0 0.0 0.00 0.00 0.00 94 1021.8
20260503072355 0 208 0.0 0.0 0.00 0.00 0.00 94 1021.8
20260503071852 0 208 0.0 0.0 0.00 0.00 0.00 93 1021.8
20260503071349 0 207 0.0 0.0 0.00 0.00 0.00 94 1022.1
20260503070845 0 207 0.0 0.0 0.00 0.00 0.00 93 1022.1
20260503070343 0 207 0.0 0.0 0.00 0.00 0.00 93 1022.1
20260503060303 1 217 0.0 0.0 0.00 0.00 0.00 89 1022.1
20260503054749 1 216 0.0 0.0 0.00 0.00 0.00 88 1022.1
20260503054246 2 215 0.0 0.0 0.00 0.00 0.00 88 1022.1
20260503053744 2 192 0.0 0.0 0.00 0.00 0.00 87 1022.1
20260503053237 2 191 0.0 0.0 0.00 0.00 0.00 86 1022.1
20260503052732 2 191 0.0 0.0 0.00 0.00 0.00 86 1022.1
20260503052229 2 191 0.0 0.0 0.00 0.00 0.00 86 1022.1
20260503051724 2 169 0.0 0.0 0.00 0.00 0.00 85 1022.1
20260503051222 3 157 0.0 0.0 0.00 0.00 0.00 84 1022.1
20260503050718 3 156 0.0 0.0 0.00 0.00 0.00 82 1022.1
20260503050215 3 156 0.0 0.0 0.00 0.00 0.00 82 1022.1
20260503045713 3 133 0.0 0.0 0.00 0.00 0.00 80 1022.1
20260503045210 4 133 0.0 0.0 0.00 0.00 0.00 80 1022.1
20260503044707 4 130 0.0 0.0 0.00 0.00 0.00 79 1022.1
20260503044204 5 130 0.0 0.0 0.00 0.00 0.00 78 1022.1
20260503043700 5 126 0.0 0.0 0.00 0.00 0.00 69 1022.1
20260503043158 5 277 0.0 0.0 0.00 0.00 0.00 67 1022.1
20260503042654 5 54 3.2 3.2 0.00 0.00 0.00 67 1022.1
20260503042150 5 8 3.2 3.2 0.00 0.00 0.00 67 1022.1
20260503041646 6 0 0.0 0.0 0.00 0.00 0.00 67 1022.1
20260503041145 6 60 0.0 0.0 0.00 0.00 0.00 66 1022.1
20260503040642 6 36 0.0 0.0 0.00 0.00 0.00 65 1022.1
20260503040140 6 342 0.0 0.0 0.00 0.00 0.00 64 1022.1
20260503035635 6 288 3.2 3.2 0.00 0.00 0.00 64 1022.1
20260503035134 7 282 0.0 0.0 0.00 0.00 0.00 62 1022.1
20260503034631 7 6 1.6 1.6 0.00 0.00 0.00 63 1022.1
20260503034128 7 295 3.2 3.2 0.00 0.00 0.00 63 1022.1
20260503033625 6 296 3.2 3.2 0.00 0.00 0.00 62 1022.1
20260503033122 6 336 3.2 3.2 0.00 0.00 0.00 64 1022.1
20260503032621 6 0 0.0 0.0 0.00 0.00 0.00 65 1021.8
20260503032119 6 318 3.2 3.2 0.00 0.00 0.00 66 1021.8
20260503031616 5 316 0.0 0.0 0.00 0.00 0.00 68 1021.8
20260503031113 5 312 0.0 0.0 0.00 0.00 0.00 70 1022.1
20260503030609 5 354 1.6 1.6 0.00 0.00 0.00 72 1022.1
20260503030106 5 252 0.0 0.0 0.00 0.00 0.00 81 1022.1
20260503025603 5 252 0.0 0.0 0.00 0.00 0.00 78 1021.4
20260503025101 5 252 0.0 0.0 0.00 0.00 0.00 77 1021.4
20260503024556 6 252 0.0 0.0 0.00 0.00 0.00 76 1021.4
20260503024054 6 252 0.0 0.0 0.00 0.00 0.00 76 1021.4
20260503023551 6 270 3.2 3.2 0.00 0.00 0.00 64 1021.4
20260503023048 6 294 1.6 1.6 0.00 0.00 0.00 65 1021.4
20260503022544 5 31 3.2 3.2 0.00 0.00 0.00 71 1021.1
20260503022039 5 224 0.0 0.0 0.00 0.00 0.00 79 1021.1
20260503021536 6 234 0.0 0.0 0.00 0.00 0.00 79 1021.1
20260503021033 6 234 0.0 0.0 0.00 0.00 0.00 78 1021.1
20260503020530 6 236 0.0 0.0 0.00 0.00 0.00 77 1021.1
20260503020027 6 270 0.0 0.0 0.00 0.00 0.00 68 1021.1
20260503015523 6 207 0.0 0.0 0.00 0.00 0.00 74 1021.1
20260503015021 6 203 0.0 0.0 0.00 0.00 0.00 76 1021.1
20260503014517 6 211 0.0 0.0 0.00 0.00 0.00 74 1021.1
20260503014015 6 216 0.0 0.0 0.00 0.00 0.00 74 1020.7
20260503013512 7 217 0.0 0.0 0.00 0.00 0.00 72 1020.7
20260503013009 7 216 0.0 0.0 0.00 0.00 0.00 71 1020.7
20260503012507 7 186 0.0 0.0 0.00 0.00 0.00 73 1020.4
20260503012002 7 192 0.0 0.0 0.00 0.00 0.00 72 1020.4
20260503011500 8 210 0.0 0.0 0.00 0.00 0.00 73 1020.4
20260503010957 7 131 0.0 0.0 0.00 0.00 0.00 66 1020.4
20260503010453 7 217 0.0 0.0 0.00 0.00 0.00 71 1020.4
20260503005950 7 217 0.0 0.0 0.00 0.00 0.00 72 1020.1
20260503005448 8 217 0.0 0.0 0.00 0.00 0.00 72 1020.1
20260503004944 8 217 0.0 0.0 0.00 0.00 0.00 70 1020.1
20260503004441 8 216 0.0 0.0 0.00 0.00 0.00 69 1020.1
20260503003939 8 216 0.0 0.0 0.00 0.00 0.00 67 1020.1
20260503003435 8 216 0.0 0.0 0.00 0.00 0.00 67 1020.1
20260503002933 8 216 0.0 0.0 0.00 0.00 0.00 66 1020.1
20260503002430 8 220 0.0 0.0 0.00 0.00 0.00 62 1020.1
20260503001926 9 199 0.0 0.0 0.00 0.00 0.00 61 1020.1
20260503001422 9 198 0.0 0.0 0.00 0.00 0.00 60 1019.6
20260503000920 10 159 0.0 0.0 0.00 0.00 0.00 58 1019.6
20260503000417 10 222 0.0 0.0 0.00 0.00 0.00 59 1019.6
20260502235914 10 229 0.0 0.0 0.00 0.00 0.00 56 1019.3
20260502235411 10 252 0.0 0.0 0.00 0.00 0.00 53 1019.3
20260502234909 11 264 0.0 0.0 0.00 0.00 0.00 56 1019.3
20260502234405 11 270 6.4 6.4 0.00 0.00 0.00 51 1019.3
20260502233903 10 228 3.2 3.2 0.00 0.00 0.00 55 1019.3
20260502233358 11 234 0.0 0.0 0.00 0.00 0.00 57 1019.3
20260502232855 11 324 0.0 0.0 0.00 0.00 0.00 58 1019.3
20260502232351 11 133 3.2 3.2 0.00 0.00 0.00 52 1019.3
20260502231848 11 252 3.2 3.2 0.00 0.00 0.00 52 1019.3
20260502231346 11 210 3.2 3.2 0.00 0.00 0.00 51 1019.3
20260502230844 11 314 3.2 3.2 0.00 0.00 0.00 50 1019.3
20260502230342 11 263 3.2 3.2 0.00 0.00 0.00 50 1019.3
20260502225838 11 168 0.0 0.0 0.00 0.00 0.00 54 1019.3
20260502225335 11 318 1.6 1.6 0.00 0.00 0.00 52 1019.3
20260502224832 11 222 4.8 4.8 0.00 0.00 0.00 51 1019.3
20260502224328 11 300 4.8 4.8 0.00 0.00 0.00 53 1019.3
20260502223825 11 297 6.4 8.0 0.00 0.00 0.00 48 1019.3
20260502223323 11 302 3.2 3.2 0.00 0.00 0.00 49 1019.3
20260502222821 11 222 1.6 1.6 0.00 0.00 0.00 50 1019.6
20260502222318 11 282 3.2 3.2 0.00 0.00 0.00 49 1019.6
20260502221814 11 282 3.2 3.2 0.00 0.00 0.00 50 1019.6
20260502221310 12 284 3.2 3.2 0.00 0.00 0.00 51 1019.3
20260502220808 12 240 0.0 0.0 0.00 0.00 0.00 54 1019.3
20260502220303 12 288 3.2 3.2 0.00 0.00 0.00 48 1019.3
20260502215800 12 313 6.4 6.4 0.00 0.00 0.00 47 1019.3
20260502215257 12 275 6.4 6.4 0.00 0.00 0.00 47 1019.3
20260502214754 12 168 3.2 3.2 0.00 0.00 0.00 47 1019.3
20260502214251 12 274 8.0 9.7 0.00 0.00 0.00 46 1019.3
20260502213748 12 33 4.8 4.8 0.00 0.00 0.00 47 1019.3
20260502213245 12 288 9.7 9.7 0.00 0.00 0.00 46 1019.3
20260502212744 12 294 9.7 9.7 0.00 0.00 0.00 46 1019.3
20260502212242 12 318 6.4 6.4 0.00 0.00 0.00 51 1019.3
20260502211737 12 246 3.2 3.2 0.00 0.00 0.00 47 1019.3
20260502211235 12 288 6.4 6.4 0.00 0.00 0.00 47 1019.3
20260502210731 12 294 3.2 3.2 0.00 0.00 0.00 47 1019.3
20260502210223 11 270 8.0 8.0 0.00 0.00 0.00 47 1019.3
20260502205720 11 306 8.0 8.0 0.00 0.00 0.00 46 1019.3
20260502205216 11 354 8.0 8.0 0.00 0.00 0.00 48 1019.3
20260502204714 11 270 11.3 12.9 0.00 0.00 0.00 50 1019.3
20260502204212 11 318 3.2 3.2 0.00 0.00 0.00 51 1019.3
20260502203709 11 318 6.4 6.4 0.00 0.00 0.00 50 1019.3
20260502203207 11 324 4.8 4.8 0.00 0.00 0.00 50 1019.3
20260502202700 11 294 8.0 8.0 0.00 0.00 0.00 48 1019.6
20260502202159 11 330 6.4 6.4 0.00 0.00 0.00 50 1019.6
20260502201656 11 288 9.7 9.7 0.00 0.00 0.00 50 1019.6